DW4559 Weather Reports


time (UTC)temp
C
wind
direction
speed
KPH
gust
KPH
rain 1hr
cm
rain 24hr
cm
rain mn
cm
humidity
%
barometer
mb
20260510190405 22 332 1.6 9.7 0.00 0.00 0.00 64 1007.5
20260510185904 22 349 1.6 4.8 0.00 0.00 0.00 67 1007.6
20260510185405 22 322 1.6 4.8 0.00 0.00 0.00 69 1007.6
20260510184404 23 12 1.6 11.3 0.00 0.00 0.00 67 1007.7
20260510183405 22 58 3.2 8.0 0.00 0.00 0.00 70 1007.7
20260510182905 22 359 1.6 4.8 0.00 0.00 0.00 72 1007.7
20260510182404 22 329 3.2 9.7 0.00 0.00 0.00 70 1007.7
20260510181905 22 313 3.2 9.7 0.00 0.00 0.00 71 1007.8
20260510181405 22 96 3.2 9.7 0.00 0.00 0.00 67 1007.8
20260510180905 22 325 3.2 9.7 0.00 0.00 0.00 70 1007.9
20260510180404 22 83 3.2 9.7 0.00 0.00 0.00 69 1007.9
20260510175905 22 17 3.2 9.7 0.00 0.00 0.00 73 1008.0
20260510175404 22 337 1.6 8.0 0.00 0.00 0.00 71 1007.9
20260510174905 21 340 1.6 4.8 0.00 0.00 0.00 74 1007.9
20260510174404 21 325 0.0 4.8 0.00 0.00 0.00 72 1007.8
20260510173905 21 332 3.2 4.8 0.00 0.00 0.00 74 1007.8
20260510173405 21 333 3.2 9.7 0.00 0.00 0.00 75 1007.8
20260510172904 20 156 1.6 9.7 0.00 0.00 0.00 76 1007.8
20260510172404 21 320 4.8 9.7 0.00 0.00 0.00 77 1007.7
20260510171405 20 318 1.6 4.8 0.00 0.00 0.00 76 1007.6
20260510170904 20 322 3.2 3.2 0.00 0.00 0.00 76 1007.7
20260510170405 20 341 0.0 4.8 0.00 0.00 0.00 78 1007.9
20260510165905 20 13 1.6 8.0 0.00 0.00 0.00 78 1007.9
20260510164905 20 331 0.0 4.8 0.00 0.00 0.00 78 1007.8
20260510164405 20 355 1.6 8.0 0.00 0.00 0.00 79 1007.7
20260510163904 20 4 0.0 3.2 0.00 0.00 0.00 80 1007.9
20260510163405 19 316 1.6 3.2 0.00 0.00 0.00 82 1007.9
20260510162904 18 339 0.0 9.7 0.00 0.00 0.00 82 1007.9
20260510162405 18 346 0.0 4.8 0.00 0.00 0.00 83 1008.0
20260510161404 18 338 1.6 3.2 0.00 0.00 0.00 82 1008.0
20260510160905 17 345 0.0 3.2 0.00 0.00 0.00 86 1008.0
20260510160405 17 265 0.0 4.8 0.00 0.00 0.00 89 1008.2
20260510155405 17 172 0.0 3.2 0.00 0.00 0.00 87 1008.3
20260510154905 17 202 1.6 4.8 0.00 0.00 0.00 89 1008.3
20260510154405 16 333 0.0 3.2 0.00 0.00 0.00 89 1008.5
20260510153905 16 332 0.0 3.2 0.00 0.00 0.00 91 1008.5
20260510153405 16 330 1.6 3.2 0.00 0.00 0.00 90 1008.6
20260510151405 15 329 0.0 3.2 0.00 0.00 0.00 93 1008.5
20260510145405 15 130 1.6 4.8 0.00 0.00 0.00 94 1008.4
20260510144905 15 285 0.0 1.6 0.00 0.00 0.00 95 1008.3
20260510144404 15 337 1.6 3.2 0.00 0.00 0.00 96 1008.2
20260510143905 14 309 1.6 3.2 0.00 0.00 0.00 96 1008.2
20260510143405 14 316 0.0 0.0 0.00 0.00 0.00 97 1008.1
20260510142905 14 316 0.0 0.0 0.00 0.00 0.00 98 1008.2
20260510141404 14 13 0.0 1.6 0.00 0.00 0.00 98 1008.0
20260510140905 14 338 0.0 0.0 0.00 0.00 0.00 98 1008.1
20260510140405 14 338 0.0 1.6 0.00 0.00 0.00 98 1008.1
20260510135905 14 353 0.0 0.0 0.00 0.00 0.00 99 1008.0
20260510135405 14 353 0.0 0.0 0.00 0.00 0.00 99 1008.0
20260510134904 13 353 0.0 1.6 0.00 0.00 0.00 99 1007.9
20260510134405 13 51 0.0 1.6 0.00 0.00 0.00 99 1007.9
20260510133904 13 10 1.6 1.6 0.00 0.00 0.00 99 1007.9
20260510132904 13 332 0.0 1.6 0.00 0.00 0.00 99 1007.8
20260510131905 13 332 0.0 1.6 0.00 0.00 0.00 99 1007.8
20260510131404 13 346 0.0 1.6 0.00 0.00 0.00 99 1007.7
20260510130904 13 340 0.0 1.6 0.00 0.00 0.00 99 1007.6
20260510130405 12 357 0.0 0.0 0.00 0.00 0.00 99 1007.6
20260510125904 12 357 0.0 0.0 0.00 0.00 0.00 99 1007.6
20260510125405 12 356 1.6 1.6 0.00 0.00 0.00 99 1007.5
20260510124905 12 70 0.0 4.8 0.00 0.00 0.00 99 1007.4
20260510123405 12 128 1.6 3.2 0.00 0.00 0.00 99 1007.2
20260510122904 12 91 1.6 3.2 0.00 0.00 0.00 99 1007.2
20260510122405 11 138 0.0 1.6 0.00 0.00 0.00 99 1007.3
20260510121904 11 125 1.6 3.2 0.00 0.00 0.00 99 1007.0
20260510120905 11 128 1.6 3.2 0.00 0.00 0.00 99 1007.3
20260510120404 11 138 1.6 4.8 0.00 0.00 0.00 99 1007.3
20260510115905 11 130 1.6 3.2 0.00 0.00 0.00 99 1007.1
20260510115405 11 59 1.6 4.8 0.00 0.00 0.00 99 1007.1
20260510114904 11 97 0.0 3.2 0.00 0.00 0.00 99 1007.0
20260510114405 11 54 0.0 1.6 0.00 0.00 0.00 99 1007.0
20260510113904 11 68 0.0 3.2 0.00 0.00 0.00 99 1007.1
20260510113405 11 128 0.0 3.2 0.00 0.00 0.00 99 1007.0
20260510112905 11 94 3.2 8.0 0.00 0.00 0.00 99 1007.0
20260510111904 11 117 0.0 3.2 0.00 0.00 0.00 99 1006.9
20260510111405 11 97 0.0 3.2 0.00 0.00 0.00 99 1007.0
20260510110404 10 72 0.0 3.2 0.00 0.00 0.00 99 1007.1
20260510105905 10 79 0.0 1.6 0.00 0.00 0.00 99 1007.1
20260510105404 10 35 0.0 3.2 0.00 0.00 0.00 99 1007.1
20260510104905 10 93 1.6 3.2 0.00 0.00 0.00 99 1007.1
20260510104404 10 131 3.2 3.2 0.00 0.00 0.00 99 1007.1
20260510103905 10 65 0.0 1.6 0.00 0.00 0.00 99 1007.1
20260510103404 10 77 1.6 3.2 0.00 0.00 0.00 99 1007.0
20260510102905 10 100 0.0 3.2 0.00 0.00 0.00 99 1007.0
20260510102404 10 119 0.0 1.6 0.00 0.00 0.00 99 1007.2
20260510101904 10 44 0.0 3.2 0.00 0.00 0.00 99 1007.1
20260510101405 10 1 0.0 1.6 0.00 0.00 0.00 99 1007.1
20260510100904 10 60 0.0 1.6 0.00 0.00 0.00 99 1007.1
20260510100405 10 132 1.6 1.6 0.00 0.00 0.00 99 1007.1
20260510094904 11 356 0.0 3.2 0.00 0.00 0.00 99 1007.3
20260510094405 11 107 1.6 4.8 0.00 0.00 0.00 99 1007.4
20260510093905 11 346 1.6 3.2 0.00 0.00 0.00 99 1007.3
20260510093404 11 316 0.0 1.6 0.00 0.00 0.00 99 1007.3
20260510092904 11 66 3.2 4.8 0.00 0.00 0.00 99 1007.1
20260510092404 11 15 1.6 1.6 0.00 0.00 0.00 99 1007.2
20260510091905 11 291 0.0 1.6 0.00 0.00 0.00 99 1006.9
20260510090404 11 103 0.0 0.0 0.00 0.00 0.00 99 1006.4
20260510085904 11 118 0.0 1.6 0.00 0.00 0.00 99 1006.3
20260510085405 11 123 0.0 1.6 0.00 0.00 0.00 99 1006.2
20260510084904 11 74 1.6 3.2 0.00 0.00 0.00 99 1006.3
20260510084404 11 68 0.0 0.0 0.00 0.00 0.00 99 1006.4
20260510083905 11 68 0.0 0.0 0.00 0.00 0.00 99 1006.4
20260510083404 11 68 0.0 0.0 0.00 0.00 0.00 99 1006.5
20260510082904 11 68 0.0 0.0 0.00 0.00 0.00 99 1006.4
20260510081905 11 68 0.0 0.0 0.00 0.00 0.00 99 1006.3
20260510081404 11 68 0.0 0.0 0.00 0.00 0.00 99 1006.3
20260510080405 11 68 0.0 0.0 0.00 0.00 0.00 99 1006.1
20260510075905 11 68 0.0 0.0 0.00 0.00 0.00 99 1006.1
20260510075404 11 68 0.0 0.0 0.00 0.00 0.00 99 1006.3
20260510074904 11 68 0.0 0.0 0.00 0.00 0.00 99 1006.3
20260510074404 11 68 0.0 0.0 0.00 0.00 0.00 99 1006.4
20260510073405 11 68 0.0 0.0 0.00 0.00 0.00 99 1006.3
20260510072904 11 68 0.0 0.0 0.00 0.00 0.00 99 1006.2
20260510071905 11 68 0.0 0.0 0.00 0.00 0.00 99 1006.2
20260510071404 11 68 1.6 3.2 0.00 0.00 0.00 99 1006.1
20260510070905 11 33 0.0 0.0 0.00 0.00 0.00 99 1006.0
20260510070404 11 33 0.0 0.0 0.00 0.00 0.00 99 1005.9
20260510065905 11 33 0.0 0.0 0.00 0.00 0.00 99 1005.9
20260510064904 11 33 0.0 0.0 0.00 0.00 0.00 99 1005.9
20260510064405 11 33 1.6 1.6 0.00 0.00 0.00 99 1005.8
20260510063904 11 150 0.0 0.0 0.00 0.00 0.00 99 1005.9
20260510063404 11 150 0.0 0.0 0.00 0.00 0.00 99 1005.8
20260510062904 11 150 0.0 1.6 0.00 0.00 0.00 99 1005.9
20260510062404 11 77 0.0 0.0 0.00 0.00 0.00 99 1005.9
20260510061905 11 77 0.0 0.0 0.00 0.00 0.00 99 1005.9
20260510061404 11 88 0.0 1.6 0.00 0.00 0.00 99 1005.9
20260510060905 11 123 0.0 0.0 0.00 0.00 0.00 99 1005.9
20260510060404 11 123 0.0 1.6 0.00 0.00 0.00 99 1005.9
20260510055904 11 339 0.0 0.0 0.00 0.00 0.00 99 1005.9
20260510055404 11 339 0.0 0.0 0.00 0.00 0.00 99 1006.0
20260510054905 11 339 0.0 1.6 0.00 0.00 0.00 99 1006.0
20260510054404 11 338 1.6 3.2 0.00 0.00 0.00 99 1005.9
20260510053404 11 260 0.0 0.0 0.00 0.00 0.00 99 1006.1
20260510052905 11 260 0.0 0.0 0.00 0.00 0.00 99 1006.0
20260510051404 11 309 0.0 1.6 0.00 0.00 0.00 99 1006.1
20260510050905 11 339 0.0 0.0 0.00 0.00 0.00 99 1006.2
20260510050404 11 339 0.0 0.0 0.00 0.00 0.00 99 1006.2
20260510045904 11 339 0.0 1.6 0.00 0.00 0.00 99 1006.2
20260510045404 11 39 0.0 1.6 0.00 0.00 0.00 99 1006.2
20260510043904 11 342 0.0 1.6 0.00 0.00 0.00 99 1006.1
20260510042904 11 343 0.0 0.0 0.00 0.00 0.00 99 1006.1
20260510042404 11 343 0.0 1.6 0.00 0.00 0.00 99 1006.1
20260510041904 11 135 0.0 3.2 0.00 0.00 0.00 99 1006.0
20260510040904 11 342 0.0 0.0 0.00 0.00 0.00 99 1005.8
20260510040404 11 342 0.0 0.0 0.00 0.00 0.00 99 1005.7
20260510035905 11 342 0.0 1.6 0.00 0.00 0.00 99 1005.6
20260510035404 11 44 0.0 1.6 0.00 0.00 0.00 99 1005.8
20260510034905 11 59 0.0 0.0 0.00 0.00 0.00 99 1005.8
20260510034405 11 59 0.0 1.6 0.00 0.00 0.00 99 1005.8
20260510033904 11 84 0.0 0.0 0.00 0.00 0.00 99 1005.8
20260510033405 11 84 0.0 1.6 0.00 0.00 0.00 99 1005.7
20260510032904 11 69 0.0 0.0 0.00 0.00 0.00 99 1005.7
20260510032404 11 69 0.0 1.6 0.00 0.00 0.00 99 1005.8
20260510031904 11 95 0.0 0.0 0.00 0.00 0.00 99 1005.8
20260510031404 11 95 1.6 4.8 0.00 0.00 0.00 99 1005.8
20260510030904 11 17 0.0 3.2 0.00 0.00 0.00 99 1005.9
20260510030404 11 158 1.6 3.2 0.00 0.00 0.00 99 1006.0
20260510025905 11 147 1.6 4.8 0.00 0.00 0.00 99 1006.0
20260510025404 11 30 0.0 0.0 0.00 0.00 0.00 99 1005.9
20260510024905 11 30 0.0 1.6 0.00 0.00 0.00 99 1005.9
20260510024404 11 319 0.0 0.0 0.00 0.00 0.00 99 1005.9
20260510023904 11 319 0.0 3.2 0.00 0.00 0.00 99 1005.9
20260510022905 11 347 0.0 1.6 0.00 0.00 0.00 99 1005.8
20260510022404 11 0 0.0 1.6 0.00 0.00 0.00 99 1005.8
20260510021904 11 114 0.0 3.2 0.00 0.00 0.00 99 1005.8
20260510020904 11 317 0.0 1.6 0.00 0.00 0.00 99 1005.7
20260510020405 11 81 1.6 1.6 0.00 0.00 0.00 99 1005.8
20260510015904 11 69 0.0 1.6 0.00 0.00 0.00 99 1005.8
20260510015404 11 127 0.0 0.0 0.00 0.00 0.00 99 1005.8
20260510014904 11 127 1.6 3.2 0.00 0.00 0.00 99 1005.8
20260510014404 11 103 0.0 0.0 0.00 0.00 0.00 99 1005.9
20260510012404 11 334 0.0 0.0 0.00 0.00 0.00 99 1005.7
20260510011904 11 334 0.0 0.0 0.00 0.00 0.00 99 1005.7
20260510010904 11 347 0.0 0.0 0.00 0.00 0.00 99 1005.6
20260510005904 11 63 0.0 1.6 0.00 0.00 0.00 99 1005.6
20260510005404 11 121 0.0 1.6 0.00 0.00 0.00 99 1005.5
20260510004905 11 168 0.0 0.0 0.00 0.00 0.00 99 1005.4
20260510004404 11 168 0.0 1.6 0.00 0.00 0.00 99 1005.3
20260510003904 11 133 0.0 1.6 0.00 0.00 0.00 99 1005.3
20260510003405 11 142 1.6 3.2 0.00 0.00 0.00 99 1005.1
20260510002905 11 121 1.6 3.2 0.00 0.00 0.00 99 1005.1
20260510002404 11 116 1.6 3.2 0.00 0.00 0.00 99 1005.1
20260510001904 11 132 0.0 1.6 0.00 0.00 0.00 99 1005.2
20260510001404 11 131 1.6 3.2 0.00 0.00 0.00 99 1005.2
20260510000404 11 146 0.0 1.6 0.00 0.00 0.00 99 1005.2
20260509235904 11 114 0.0 4.8 0.00 0.00 0.00 99 1005.1
20260509235404 11 91 3.2 4.8 0.00 0.00 0.00 99 1005.0
20260509234904 11 138 1.6 3.2 0.00 0.00 0.00 99 1005.5
20260509234405 11 146 1.6 3.2 0.00 0.00 0.00 100 1005.6
20260509233904 11 146 3.2 3.2 0.00 0.00 0.00 100 1005.4
20260509233404 11 135 1.6 4.8 0.00 0.00 0.00 100 1005.5
20260509232904 11 320 0.0 1.6 0.00 0.00 0.00 100 1005.7
20260509232404 11 316 0.0 3.2 0.00 0.00 0.00 100 1006.0
20260509231905 12 340 1.6 9.7 0.00 0.00 0.00 99 1005.7
20260509231404 12 312 3.2 9.7 0.00 0.00 0.00 99 1006.2
20260509230904 12 323 3.2 3.2 0.00 0.00 0.00 99 1005.7
20260509230404 12 335 1.6 3.2 0.00 0.00 0.00 99 1005.6
20260509225904 12 332 0.0 1.6 0.00 0.00 0.00 99 1005.5
20260509225405 12 283 0.0 0.0 0.00 0.00 0.00 99 1005.5
20260509224904 12 283 0.0 0.0 0.00 0.00 0.00 99 1005.5
20260509224404 12 330 0.0 1.6 0.00 0.00 0.00 99 1005.6
20260509223904 11 126 1.6 3.2 0.00 0.00 0.00 99 1005.6
20260509223404 11 139 0.0 1.6 0.00 0.00 0.00 98 1005.7
20260509222905 11 89 0.0 1.6 0.00 0.00 0.00 98 1005.8
20260509222404 11 26 0.0 0.0 0.00 0.00 0.00 98 1005.8
20260509221404 11 26 0.0 1.6 0.00 0.00 0.00 98 1006.1
20260509220904 11 354 1.6 3.2 0.00 0.00 0.00 98 1006.3
20260509220405 11 325 0.0 1.6 0.00 0.00 0.00 98 1006.3
20260509215904 11 67 0.0 1.6 0.00 0.00 0.00 98 1006.3
20260509215404 11 133 1.6 3.2 0.00 0.00 0.00 98 1006.3
20260509214904 11 357 0.0 1.6 0.00 0.00 0.00 98 1006.2
20260509214404 11 339 1.6 3.2 0.00 0.00 0.00 98 1006.3
20260509213904 11 57 0.0 1.6 0.00 0.00 0.00 98 1006.2
20260509212405 12 330 1.6 1.6 0.00 0.00 0.00 97 1006.5
20260509211404 12 338 1.6 4.8 0.00 0.00 0.00 96 1006.3
20260509210404 12 336 1.6 3.2 0.00 0.00 0.00 96 1006.2
20260509205904 12 341 1.6 4.8 0.00 0.00 0.00 96 1006.0
20260509205404 12 214 1.6 3.2 0.00 0.00 0.00 97 1006.1
20260509204905 12 351 1.6 3.2 0.00 0.00 0.00 97 1006.2
20260509203904 12 356 0.0 3.2 0.00 0.00 0.00 98 1006.2
20260509203404 12 354 0.0 4.8 0.00 0.00 0.00 98 1006.3
20260509202904 12 6 0.0 3.2 0.00 0.00 0.00 98 1006.3
20260509202404 12 337 1.6 3.2 0.00 0.00 0.00 98 1006.4
20260509201904 12 21 1.6 4.8 0.00 0.00 0.00 98 1006.6
20260509201404 12 314 1.6 3.2 0.00 0.00 0.00 98 1006.6
20260509200904 12 329 3.2 4.8 0.00 0.00 0.00 97 1006.5
20260509200405 12 339 1.6 3.2 0.00 0.00 0.00 97 1006.5
20260509195904 12 334 1.6 4.8 0.00 0.00 0.00 97 1006.6
20260509195404 12 3 1.6 4.8 0.00 0.00 0.00 97 1006.7
20260509194404 12 358 1.6 3.2 0.00 0.00 0.00 96 1006.6
20260509193905 12 356 3.2 4.8 0.00 0.00 0.00 96 1006.7
20260509193404 12 336 1.6 3.2 0.00 0.00 0.00 96 1006.8
20260509192904 12 343 1.6 9.7 0.00 0.00 0.00 96 1006.8
20260509191904 13 329 3.2 4.8 0.00 0.00 0.00 94 1006.8
20260509191404 13 339 1.6 4.8 0.00 0.00 0.00 94 1006.8
20260509190904 13 333 3.2 11.3 0.00 0.00 0.00 93 1006.7